Regional Weather Roundup
Issued by NWS State College, PA

Home | Current Version | Previous Version | Text Only | Print | Product List | Glossary On
Versions: 1 2 3 4 5 6 7 8 9 10 11 12 13 14 15 16 17 18 19 20 21 22 23 24 25 26 27 28 29 30 31 32 33 34 35 36 37 38 39 40 41 42 43 44 45 46 47 48 49 50
000
ASUS41 KCTP 161110
RWRCTP

REGIONAL WEATHER ROUNDUP
NATIONAL WEATHER SERVICE STATE COLLEGE PA
600 AM EST MON JAN 16 2017

Note: "fair" indicates few or no clouds below 12,000 feet with no
significant weather and/or obstructions to visibility.

* = STATION THAT DOES NOT REPORT PRECIPITATION /E.G. RAIN...SNOW...ETC/
    THUNDER OR FOG.

PAZ002>004-007>009-013>016-020>023-029>032-161200-
WESTERN PENNSYLVANIA

CITY           SKY/WX    TMP DP  RH WIND       PRES   REMARKS
ERIE           CLOUDY    24  17  74 S6        30.36S
MEADVILLE      CLOUDY    21  16  81 CALM      30.32S
FRANKLIN*        N/A     16  10  79 CALM      30.34S
NEW CASTLE     FAIR      16  14  92 CALM      30.36R
BEAVER COUNTY  NOT AVBL
BUTLER*        CLOUDY    18  14  86 NE6       30.35F WCI   9
PITTSBURGH INT CLOUDY    24  22  91 CALM      30.33S
PITTSBURGH     CLOUDY    27  18  69 CALM      30.32R
INDIANA*       CLEAR     19  18  93 CALM      30.36S
LATROBE        CLOUDY    23  21  93 N3        30.34S
WASHINGTON CO* CLOUDY    27  25  93 CALM      30.33S
$$

PAZ004>006-010>012-017>019-024>028-033>037-041-042-045-046-049>053-161200-
CENTRAL PENNSYLVANIA

CITY           SKY/WX    TMP DP  RH WIND       PRES   REMARKS
BRADFORD       CLOUDY    13  10  88 CALM      30.30R
DUBOIS         CLOUDY    19  14  81 CALM      30.32R
CLEARFIELD     CLOUDY    14  12  92 N3        30.36R
JOHNSTOWN      CLOUDY    31  30  96 SE3       30.29S
ALTOONA        CLOUDY    27  20  75 CALM      30.36R
STATE COLLEGE  CLEAR     18  16  93 CALM      30.39R
WILLIAMSPORT   CLOUDY    17  12  80 CALM      30.44R
SELINSGROVE    CLOUDY    13  12  96 CALM      30.45R
FT INDIANTOWN  CLOUDY    17  17 100 CALM      30.44R
CAPITAL CITY   CLOUDY    21  17  84 SW5       30.45S WCI  15
HARRISBURG     CLOUDY    21  19  92 CALM      30.45R
YORK           CLOUDY    20  20 100 CALM      30.43S
$$

PAZ038>040-043-044-047-048-054-055-060>062-067>071-161200-
EASTERN PENNSYLVANIA

CITY           SKY/WX    TMP DP  RH WIND       PRES   REMARKS
SCRANTON       CLOUDY    13  10  88 E3        30.41R
MOUNT POCONO   CLOUDY     5   1  83 CALM      30.34R
ALLENTOWN      CLOUDY    15  10  80 CALM      30.44S
QUAKERTOWN*    SUNNY     16  14  93 CALM      30.44R
READING        CLOUDY    19  16  88 CALM      30.44R
LANCASTER      CLOUDY    22  20  92 CALM      30.44S
COATESVILLE    CLOUDY    19  16  86 W5        30.44R WCI  13
POTTSTOWN      CLOUDY    17  14  88 CALM      30.46R
BLUE BELL      CLEAR     21  19  93 CALM      30.44R
DOYLESTOWN     CLEAR     24  18  77 CALM      30.43S
WILLOW GROVE   NOT AVBL
NORTH PHILA    CLEAR     24  17  74 CALM      30.46S
PHILADELPHIA   PTCLDY    28  19  69 N6        30.47R
$$




USA.gov is the U.S. government's official web portal to all federal, state and local government web resources and services.